Walla Walla, WA
on Wednesday, November 14, 2012

Wednesday
Previous Day Next Day
Daily Summary
 ActualAverage (KPDT)Record (KPDT)
Temperature
Mean Temperature °F / °C 42°F / 6°C  
Max Temperature 46°F / 8°C 50°F / 10°C 72°F / 22°C (1953)
Min Temperature 37°F / 3°C 34°F / 1°C -4°F / -20°C (1955)
Degree Days
Heating Degree Days 24 23  
Month to date heating degree days 292  
Since 1 July heating degree days 834  
Cooling Degree Days 0 0  
Month to date cooling degree days 0  
Year to date cooling degree days 636  
Moisture
Dew Point 40°F / 4°C   
Average Humidity 93    
Maximum Humidity 100    
Minimum Humidity 87    
Precipitation
Precipitation 0.02 in / 0.51 cm 0.05 in / 1.27 cm 0.53 in / 1.35 cm (1963)
Month to date precipitation 0.70  
Year to date precipitation 10.37  
Snow
Snow 0.00 in / 0.00 cm 0.10 in / 0.25 cm 1.50 in / 3.81 cm (1980)
Month to date snowfall 0.3  
Year to date snowfall 8.1  
Since 1 July snowfall 0.4  
Snow Depth in / cm   
Wind
Wind Speed 3 mph / 5 km/h   
Max Wind Speed 8 mph / 13 km/h   
Max Gust Speed mph / km/h   
Visibility 3 miles / 4 kilometers   
Events Fog , Rain   

Key: T is trace of precipitation, MM is missing value
Source: NWS Daily Summary
Time(PST)TemperatureDew PointHumidity Pressure Visibility Wind DirectionWind SpeedGust SpeedPrecipitationEvents Conditions
12:03 AM 39.2°F / 4.0°C 37.4°F / 3.0°C 93% 30.21 in / 1022.9 hPa 0.2 miles / 0.4 kilometers West 8.1 mph / 13.0 km/h - 0.00 in / 0.0 cm Fog , Rain Light Rain
12:53 AM 39.0°F / 3.9°C 37.9°F / 3.3°C 96% 30.25 in / 1024.1 hPa 0.2 miles / 0.4 kilometers SW 3.5 mph / 5.6 km/h - 0.00 in / 0.0 cm Fog Fog
1:53 AM 39.0°F / 3.9°C 39.0°F / 3.9°C 100% 30.25 in / 1024.4 hPa 0.2 miles / 0.4 kilometers South 3.5 mph / 5.6 km/h - N/A Fog Fog
2:08 AM 39.2°F / 4.0°C 39.2°F / 4.0°C 100% 30.22 in / 1023.2 hPa 0.2 miles / 0.4 kilometers South 3.5 mph / 5.6 km/h - N/A Fog Fog
2:53 AM 39.0°F / 3.9°C 37.9°F / 3.3°C 96% 30.24 in / 1023.9 hPa 0.2 miles / 0.4 kilometers SSE 4.6 mph / 7.4 km/h - N/A Fog Fog
3:04 AM 39.2°F / 4.0°C 37.4°F / 3.0°C 93% 30.21 in / 1022.9 hPa 0.2 miles / 0.4 kilometers SSE 3.5 mph / 5.6 km/h - N/A Fog Fog
3:33 AM 39.2°F / 4.0°C 37.4°F / 3.0°C 93% 30.21 in / 1022.9 hPa 0.8 miles / 1.2 kilometers Calm Calm - N/A   Mist
3:48 AM 39.2°F / 4.0°C 37.4°F / 3.0°C 93% 30.21 in / 1022.9 hPa 2.0 miles / 3.2 kilometers Calm Calm - N/A   Overcast
3:49 AM 39.0°F / 3.9°C 37.9°F / 3.3°C 96% 30.24 in / 1023.8 hPa 2.0 miles / 3.2 kilometers Calm Calm - N/A   Overcast
3:56 AM 39.2°F / 4.0°C 37.4°F / 3.0°C 93% 30.21 in / 1022.9 hPa 1.8 miles / 2.8 kilometers Calm Calm - N/A   Overcast
4:03 AM 39.2°F / 4.0°C 37.4°F / 3.0°C 93% 30.21 in / 1022.9 hPa 3.0 miles / 4.8 kilometers Calm Calm - N/A   Overcast
4:10 AM 39.2°F / 4.0°C 37.4°F / 3.0°C 93% 30.21 in / 1022.9 hPa 2.5 miles / 4.0 kilometers Calm Calm - N/A   Overcast
4:21 AM 39.2°F / 4.0°C 37.4°F / 3.0°C 93% 30.21 in / 1022.9 hPa 4.0 miles / 6.4 kilometers ESE 4.6 mph / 7.4 km/h - N/A   Overcast
4:53 AM 39.0°F / 3.9°C 37.9°F / 3.3°C 96% 30.23 in / 1023.7 hPa 5.0 miles / 8.0 kilometers ESE 4.6 mph / 7.4 km/h - N/A   Overcast
5:00 AM 39.2°F / 4.0°C 37.4°F / 3.0°C 93% 30.21 in / 1022.9 hPa 6.0 miles / 9.7 kilometers Calm Calm - N/A   Mostly Cloudy
5:53 AM 37.9°F / 3.3°C 37.0°F / 2.8°C 97% 30.24 in / 1023.8 hPa 3.0 miles / 4.8 kilometers Calm Calm - N/A   Overcast
6:24 AM 39.2°F / 4.0°C 37.4°F / 3.0°C 93% 30.22 in / 1023.2 hPa 1.8 miles / 2.8 kilometers NNE 4.6 mph / 7.4 km/h - N/A   Overcast
6:38 AM 39.2°F / 4.0°C 37.4°F / 3.0°C 93% 30.23 in / 1023.6 hPa 0.5 miles / 0.8 kilometers Calm Calm - N/A Fog Fog
6:53 AM 37.9°F / 3.3°C 37.0°F / 2.8°C 97% 30.26 in / 1024.7 hPa 1.0 miles / 1.6 kilometers North 4.6 mph / 7.4 km/h - N/A   Overcast
7:19 AM 39.2°F / 4.0°C 37.4°F / 3.0°C 93% 30.24 in / 1023.9 hPa 2.5 miles / 4.0 kilometers NNE 6.9 mph / 11.1 km/h - N/A   Overcast
7:53 AM 41.0°F / 5.0°C 39.0°F / 3.9°C 93% 30.28 in / 1025.4 hPa 2.5 miles / 4.0 kilometers North 4.6 mph / 7.4 km/h - N/A   Overcast
8:30 AM 42.8°F / 6.0°C 39.2°F / 4.0°C 87% 30.27 in / 1024.9 hPa 2.0 miles / 3.2 kilometers Calm Calm - 0.00 in / 0.0 cm   Overcast
8:39 AM 42.8°F / 6.0°C 39.2°F / 4.0°C 87% 30.27 in / 1024.9 hPa 2.0 miles / 3.2 kilometers Calm Calm - 0.00 in / 0.0 cm Rain Light Rain
8:53 AM 42.1°F / 5.6°C 41.0°F / 5.0°C 96% 30.30 in / 1025.8 hPa 1.5 miles / 2.4 kilometers Calm Calm - 0.00 in / 0.0 cm Rain Light Rain
9:17 AM 42.8°F / 6.0°C 41.0°F / 5.0°C 93% 30.27 in / 1024.9 hPa 1.5 miles / 2.4 kilometers Calm Calm - 0.00 in / 0.0 cm Rain Light Rain
9:53 AM 43.0°F / 6.1°C 41.0°F / 5.0°C 93% 30.30 in / 1025.9 hPa 1.5 miles / 2.4 kilometers Calm Calm - 0.01 in / 0.3 cm Rain Light Rain
10:00 AM 44.6°F / 7.0°C 41.0°F / 5.0°C 87% 30.27 in / 1024.9 hPa 3.0 miles / 4.8 kilometers Calm Calm - 0.00 in / 0.0 cm Rain Light Rain
10:53 AM 44.1°F / 6.7°C 42.1°F / 5.6°C 93% 30.30 in / 1026.1 hPa 3.0 miles / 4.8 kilometers ENE 3.5 mph / 5.6 km/h - 0.01 in / 0.3 cm Rain Light Rain
11:53 AM 46.0°F / 7.8°C 44.1°F / 6.7°C 93% 30.30 in / 1025.9 hPa 4.0 miles / 6.4 kilometers Variable 3.5 mph / 5.6 km/h - 0.00 in / 0.0 cm   Mostly Cloudy
12:21 PM 46.4°F / 8.0°C 44.6°F / 7.0°C 93% 30.28 in / 1025.3 hPa 2.5 miles / 4.0 kilometers NW 6.9 mph / 11.1 km/h - N/A   Scattered Clouds
12:36 PM 46.4°F / 8.0°C 44.6°F / 7.0°C 93% 30.28 in / 1025.3 hPa 2.5 miles / 4.0 kilometers WNW 8.1 mph / 13.0 km/h - N/A   Mostly Cloudy
12:46 PM 46.4°F / 8.0°C 44.6°F / 7.0°C 93% 30.28 in / 1025.3 hPa 4.0 miles / 6.4 kilometers WNW 8.1 mph / 13.0 km/h - N/A   Overcast
12:53 PM 46.0°F / 7.8°C 43.0°F / 6.1°C 89% 30.31 in / 1026.3 hPa 4.0 miles / 6.4 kilometers NW 4.6 mph / 7.4 km/h - N/A   Overcast
1:53 PM 46.0°F / 7.8°C 43.0°F / 6.1°C 89% 30.31 in / 1026.2 hPa 4.0 miles / 6.4 kilometers Calm Calm - N/A   Overcast
2:53 PM 46.0°F / 7.8°C 43.0°F / 6.1°C 89% 30.31 in / 1026.2 hPa 4.0 miles / 6.4 kilometers West 4.6 mph / 7.4 km/h - N/A   Overcast
3:53 PM 45.0°F / 7.2°C 42.1°F / 5.6°C 90% 30.31 in / 1026.4 hPa 4.0 miles / 6.4 kilometers West 3.5 mph / 5.6 km/h - N/A   Overcast
4:53 PM 45.0°F / 7.2°C 42.1°F / 5.6°C 90% 30.32 in / 1026.7 hPa 5.0 miles / 8.0 kilometers NW 3.5 mph / 5.6 km/h - N/A   Overcast
5:53 PM 44.1°F / 6.7°C 42.1°F / 5.6°C 93% 30.33 in / 1027.0 hPa 5.0 miles / 8.0 kilometers North 4.6 mph / 7.4 km/h - N/A   Overcast
6:53 PM 44.1°F / 6.7°C 41.0°F / 5.0°C 89% 30.34 in / 1027.3 hPa 5.0 miles / 8.0 kilometers North 5.8 mph / 9.3 km/h - N/A   Overcast
7:53 PM 44.1°F / 6.7°C 42.1°F / 5.6°C 93% 30.34 in / 1027.2 hPa 5.0 miles / 8.0 kilometers NNE 3.5 mph / 5.6 km/h - N/A   Overcast
8:53 PM 44.1°F / 6.7°C 42.1°F / 5.6°C 93% 30.34 in / 1027.4 hPa 4.0 miles / 6.4 kilometers NW 4.6 mph / 7.4 km/h - N/A   Overcast
9:53 PM 43.0°F / 6.1°C 41.0°F / 5.0°C 93% 30.35 in / 1027.6 hPa 4.0 miles / 6.4 kilometers North 4.6 mph / 7.4 km/h - N/A   Overcast
10:34 PM 42.8°F / 6.0°C 41.0°F / 5.0°C 93% 30.32 in / 1026.6 hPa 2.5 miles / 4.0 kilometers North 3.5 mph / 5.6 km/h - N/A   Overcast
10:53 PM 42.1°F / 5.6°C 41.0°F / 5.0°C 96% 30.35 in / 1027.5 hPa 2.5 miles / 4.0 kilometers North 3.5 mph / 5.6 km/h - N/A   Overcast
11:14 PM 42.8°F / 6.0°C 41.0°F / 5.0°C 93% 30.32 in / 1026.6 hPa 2.5 miles / 4.0 kilometers Calm Calm - N/A   Overcast
11:38 PM 42.8°F / 6.0°C 41.0°F / 5.0°C 93% 30.32 in / 1026.6 hPa 2.0 miles / 3.2 kilometers Calm Calm - N/A   Overcast
11:53 PM 42.1°F / 5.6°C 41.0°F / 5.0°C 96% 30.34 in / 1027.4 hPa 2.0 miles / 3.2 kilometers Calm Calm - N/A   Overcast
Moon Phase
Nov. 14 Nov. 20 Nov. 28 Dec. 06 Dec. 13
Sunrise:06:53 AM (PST) Moon Rise:07:51 AM (PST)11/14
Sunset:04:21 PM (PST) Moon Set:05:11 PM (PST)11/14

Copyright © 2014 The Weather Underground, Inc.